Location: Vesunti
(61.5000°N, 22.8333°E)
Time: 16:18:07
(UTC+00:00)

Cosmos 1727 Rocket - Pass Details

Date: 17 February 2020
Orbit: 962 x 995 km, 82.9° (Epoch: 06 April)

Event Time Altitude Azimuth Distance (km) Brightness Sun altitude
Rises 04:35:12 0° 209° (SSW) 3,652 6.8 -11.6°
Reaches altitude 10° 04:37:46 10° 213° (SSW) 2,705 6.1 -11.3°
Maximum altitude 04:43:51 57° 292° (WNW) 1,126 4.0 -10.5°
Drops below altitude 10° 04:49:58 10° 12° (NNE) 2,714 6.4 -9.8°
Sets 04:52:33 0° 16° (NNE) 3,665 7.1 -9.5°
